This demonstration page uses our WeatherBlox Daily Observations layout. Learn more.

Left ArrowRight Arrow

Hourly Observations for August 14, 2015

Temp ( °F °C ) Dew Point ( °F °C ) Humidity (%) Winds ( mph kmh ) Pressure ( in mb ) Visibility ( mi km ) Precip ( " mm )
12:53 am 00:53 Clear 77 25 40 4.4 26 26 S 7 11 29.90 1013 10 16 0.00 0.00
1:53 am 01:53 Clear 73 22.8 43 6.1 34 34 W 3 6 29.91 1013 10 16 0.00 0.00
2:53 am 02:53 Clear 71 21.7 46 7.8 41 41 Calm 29.92 1013 10 16 0.00 0.00
3:53 am 03:53 Clear 70 21.1 47 8.3 44 44 Calm 29.94 1014 10 16 0.00 0.00
4:53 am 04:53 Clear 65 18.3 46 7.8 51 51 NE 6 9 29.97 1015 10 16 0.00 0.00
5:53 am 05:53 Clear 64 17.8 46 7.8 52 52 E 5 7 29.98 1015 10 16 0.00 0.00
6:53 am 06:53 Sunny 65 18.3 48 8.9 54 54 Calm 30.01 1016 10 16 0.00 0.00
7:53 am 07:53 Sunny 71 21.7 51 10.6 49 49 SE 10 17 30.02 1017 10 16 0.00 0.00
8:53 am 08:53 Sunny 72 22.2 51 10.6 48 48 SE 7 11 30.03 1017 10 16 0.00 0.00
9:53 am 09:53 Sunny 75 23.9 51 10.6 43 43 Calm 30.03 1017 10 16 0.00 0.00
10:53 am 10:53 Sunny 77 25 49 9.4 37 37 S 5 7 30.03 1017 10 16 0.00 0.00
11:53 am 11:53 Partly Cloudy 81 27.2 48 8.9 32 32 S 8 13 30.02 1017 10 16 0.00 0.00
12:53 pm 12:53 Mostly Cloudy with Haze 83 28.3 47 8.3 28 28 VRB 6 9 30.01 1016 5 8 0.00 0.00
1:53 pm 13:53 Cloudy with Haze 87 30.6 46 7.8 24 24 VRB 3 6 30.00 1016 3 5 0.00 0.00
2:53 pm 14:53 Hazy 87 30.6 43 6.1 21 21 Calm 29.98 1015 4 6 0.00 0.00
3:53 pm 15:53 Hazy 90 32.2 39 3.9 17 17 SSE 7 11 29.97 1015 5 8 0.00 0.00
4:53 pm 16:53 Cloudy with Haze 90 32.2 41 5 18 18 VRB 6 9 29.95 1014 4 6 0.00 0.00
5:53 pm 17:53 Cloudy with Haze 89 31.7 43 6.1 20 20 SW 5 7 29.95 1014 3 5 0.00 0.00
6:53 pm 18:53 Cloudy with Haze 89 31.7 43 6.1 20 20 W 5 7 29.94 1014 3 5 0.00 0.00
7:53 pm 19:53 Cloudy with Haze 84 28.9 45 7.2 25 25 NW 3 6 29.94 1014 3 5 0.00 0.00
8:53 pm 20:53 Cloudy with Haze 80 26.7 48 8.9 33 33 W 7 11 29.96 1015 4 6 0.00 0.00
9:53 pm 21:53 Cloudy with Haze 78 25.6 49 9.4 36 36 WNW 7 11 29.97 1015 4 6 0.00 0.00
10:53 pm 22:53 Cloudy with Haze 78 25.6 47 8.3 33 33 NNW 6 9 29.98 1015 4 6 0.00 0.00
11:53 pm 23:53 Cloudy with Haze 73 22.8 46 7.8 38 38 NNW 3 6 29.99 1016 5 8 0.00 0.00

Powered by AerisWeather